Weather in Pau

France     43°18′16″N   0°22′08″E
temp.,
°C
wind,
m/s
gust,
m/s
humid.,
%
clouds,
%
prec.,
mm/h
press.,
hPa
HPBL,
m
9 december, thu
thu901:00+4w51290100 3.7 1015676
04:00+4wsw51092100 1.8 1015514
07:00+4wsw4894100 2.8 1016442
10:00+5sw4790100 0.7 1016299
13:00+5ssw2588100 3.8 1015315
16:00+5se2492100 1.8 1012155
19:00+8sw3794100 4.4 1012198
22:00+10wsw61498100 5.9 1011909
10 december, fri
fri1001:00+11w102196100 17.7 10101597
04:00+11w92096100 6.9 10091428
07:00+10w81592100 11.2 10111223
10:00+9w91788100 2.6 10141393
13:00+8w91887100 4.3 10151553
16:00+7w81790100 2.3 10161462
19:00+7wnw71692100 5.8 10171435
22:00+7wnw51295100 4.8 10201366
11 december, sat
sat1101:00+6w5994100 7.7 1021999
04:00+7w5994100 2.8 10221130
07:00+6ssw2494100 4.2 1024141
10:00+6sse1295100 1.6 1025108
13:00+8wsw139094 2.1 1025213
16:00+8wsw1183100 0.1 102518
19:00+8s1283100 0.1 102727
22:00+7wnw0185100 0.0 102810
12 december, sun
sun1201:00+6ssw008897 0.0 102910
04:00+7s2285100 0.0 102941
07:00+7sse227973 0.0 102836
10:00+8sse22791 0.0 102964
13:00+13e24650 0.0 1027569
16:00+12e25770 0.0 1025250
19:00+7ese22905 0.0 102641
22:00+6se22865 0.0 102631
13 december, mon
mon1301:00+6se22805 0.0 102420
04:00+6se22775 0.0 102312
07:00+6se22755 0.0 102312
10:00+9s11725 0.0 102313
13:00+13nw116283 0.0 1023243
16:00+12nnw117628 0.0 102328
19:00+8ssw118629 0.0 102511
22:00+7ssw11865 0.0 102611